{"data":{"norad_id":49112,"intl_designator":"2021-076A","name":"RSW-01","alt_names":[],"object_type":"PAYLOAD","status":"ACTIVE","operator":null,"country":"PRC","launch_date":"2021-08-24","launch_site_code":"JSC","launch_vehicle":null,"mission":null,"orbit_class":"UNKNOWN","rcs_meters":null,"size_class":null,"mass_kg":null,"dimensions":null,"purposes":[],"wikipedia_slug":null,"has_3d_model":false,"image_url":null,"decayed_at":null,"tle_current":{"epoch":"2026-09-20T22:44:00.837888Z","epoch_age_seconds":62543,"freshness":"FRESH","line1":"1 49112U 21076A   26263.94723192  .00000155  00000+0  24503-3 0  9996","line2":"2 49112  86.4072 123.6376 0015751 150.8001 209.4027 13.42863891248731","mean_motion":13.42863891,"eccentricity":0.0015751,"inclination_deg":86.4072,"raan_deg":123.6376,"arg_perigee_deg":150.8001,"mean_anomaly_deg":209.4027,"bstar":0.00024503,"rev_number":24873,"period_min":107.23350368202,"perigee_km":1086.8532950914,"apogee_km":1110.4066063395,"semimajor_km":7476.7669507154,"source":"CELESTRAK","updated_at":"2026-09-21T09:00:07.980745Z"}}}